EW1707 Weather Reports


Display with metric or nautical units.
time (UTC)temp
F
wind
direction
speed
MPH
gust
MPH
rain 1hr
in
rain 24hr
in
rain mn
in
humidity
%
barometer
mb
20260505184513 29 360 0.0 5.0 0.01 0.25 0.01 94 1014.6
20260505183010 29 360 0.0 7.0 0.00 0.24 0.00 94 1014.7
20260505181510 29 360 0.0 2.0 0.00 0.24 0.00 94 1014.9
20260505180013 29 360 0.0 4.0 0.00 0.24 0.00 94 1014.3
20260505174508 29 360 2.0 6.0 0.00 0.24 0.00 94 1014.3
20260505173006 29 360 0.0 5.0 0.00 0.24 0.00 94 1014.5
20260505171507 29 360 0.0 7.0 0.00 0.24 0.00 93 1014.7
20260505170007 29 360 0.0 0.0 0.00 0.24 0.00 94 1014.6
20260505164503 29 360 0.0 0.0 0.00 0.24 0.00 94 1014.4
20260505163009 29 360 0.0 0.0 0.00 0.24 0.00 94 1014.4
20260505161501 29 360 0.0 0.0 0.00 0.24 0.00 94 1014.6
20260505153107 28 360 0.0 0.0 0.00 0.24 0.00 94 1014.6
20260505151607 27 360 0.0 0.0 0.00 0.24 0.00 94 1014.6
20260505140111 26 360 0.0 0.0 0.00 0.24 0.00 91 1014.0
20260505124541 27 360 1.0 4.0 0.00 0.24 0.00 91 1012.7
20260505123047 27 360 1.0 4.0 0.00 0.24 0.00 90 1012.7
20260505121540 27 360 0.0 5.0 0.00 0.24 0.00 90 1012.6
20260505120044 28 360 0.0 4.0 0.00 0.24 0.00 90 1012.4
20260505114539 28 360 0.0 0.0 0.00 0.24 0.00 90 1012.2
20260505113029 29 360 0.0 0.0 0.00 0.24 0.00 90 1011.9
20260505111527 29 360 0.0 5.0 0.00 0.24 0.00 90 1011.9
20260505101518 31 360 2.0 6.0 0.00 0.24 0.00 91 1011.0
20260505100016 31 360 0.0 5.0 0.00 0.24 0.00 91 1010.9
20260505094512 31 360 0.0 4.0 0.00 0.24 0.00 90 1010.6
20260505093009 32 360 0.0 0.0 0.00 0.24 0.00 90 1010.4
20260505091507 33 360 0.0 1.0 0.00 0.24 0.00 90 1010.2
20260505090015 33 360 0.0 3.0 0.00 0.24 0.00 90 1009.6
20260505084501 34 360 1.0 4.0 0.00 0.24 0.00 1009.4
20260505083102 0 360 0.0 0.0 0.00 0.24 0.00 1009.2
20260505081559 0 360 0.0 0.0 0.00 0.24 0.00 1009.5
20260505080050 0 360 0.0 0.0 0.00 0.24 0.00 1009.8
20260505074543 0 360 0.0 4.0 0.00 0.24 0.00 1009.8
20260505073050 0 360 2.0 7.0 0.00 0.24 0.00 1010.1
20260505071543 0 360 2.0 5.0 0.00 0.24 0.00 1010.0
20260505070031 0 360 0.0 0.0 0.00 0.24 0.00 1010.2
20260505064526 0 360 0.0 0.0 0.00 0.24 0.00 1010.1
20260505063022 0 360 0.0 0.0 0.00 0.24 0.00 1010.0
20260505061519 0 360 0.0 5.0 0.00 0.24 0.00 1010.0
20260505060034 0 162 0.0 0.0 0.00 0.24 0.00 1010.1
20260505054512 0 162 0.0 0.0 0.00 0.24 0.24 1010.1
20260505053005 0 162 0.0 2.0 0.00 0.24 0.24 1010.1
20260505051504 0 135 3.0 7.0 0.00 0.24 0.24 1010.1
20260505050106 0 150 4.0 9.0 0.00 0.24 0.24 1010.5
20260505041544 0 360 1.0 5.0 0.00 0.24 0.24 1011.3
20260505040041 0 360 0.0 4.0 0.03 0.24 0.24 1011.7
20260505034535 0 360 0.0 0.0 0.06 0.24 0.24 1011.8
20260505033037 33 360 0.0 0.0 0.13 0.24 0.24 88 1012.1
20260505031533 33 360 0.0 0.0 0.20 0.24 0.24 88 1012.0
20260505030032 33 360 0.0 0.0 0.21 0.21 0.21 88 1011.9
20260505024531 34 360 0.0 5.0 0.18 0.18 0.18 90 1011.4
20260505023027 37 360 1.0 7.0 0.09 0.09 0.09 90 1011.5
20260505021529 38 360 0.0 6.0 0.03 0.03 0.03 90 1011.1
20260505020024 39 34 2.0 8.0 0.00 0.00 0.00 88 1010.5
20260505014521 41 49 3.0 8.0 0.00 0.00 0.00 81 1010.6
20260505013020 42 360 1.0 6.0 0.00 0.00 0.00 77 1010.1
20260505011524 43 72 0.0 4.0 0.00 0.00 0.00 77 1010.4
20260505010018 44 98 1.0 5.0 0.00 0.00 0.00 72 1010.1
20260505004522 44 101 0.0 7.0 0.00 0.00 0.00 71 1010.0
20260505003017 44 360 0.0 5.0 0.00 0.00 0.00 69 1010.0
20260505001517 45 111 1.0 7.0 0.00 0.00 0.00 72 1010.0
20260505000024 44 360 1.0 4.0 0.00 0.00 0.00 69 1010.0
20260504234516 44 28 0.0 4.0 0.00 0.00 0.00 70 1010.1
20260504233015 44 360 0.0 2.0 0.00 0.00 0.00 67 1009.9
20260504231515 44 360 1.0 5.0 0.00 0.00 0.00 67 1009.6
20260504230015 44 360 0.0 4.0 0.00 0.00 0.00 67 1009.3
20260504224519 45 334 0.0 3.0 0.00 0.00 0.00 69 1009.6
20260504223014 45 331 0.0 7.0 0.00 0.00 0.00 71 1010.0
20260504221512 46 360 1.0 7.0 0.00 0.00 0.00 62 1010.4
20260504220011 46 53 1.0 6.0 0.00 0.00 0.00 58 1009.6
20260504214518 47 32 0.0 8.0 0.00 0.00 0.00 53 1009.4
20260504213010 48 360 3.0 11.0 0.00 0.00 0.00 50 1009.0
20260504211521 52 32 4.0 11.0 0.00 0.00 0.00 41 1009.0
20260504210009 55 30 3.0 8.0 0.00 0.00 0.00 33 1008.6
20260504204515 57 360 2.0 8.0 0.00 0.00 0.00 31 1008.7
20260504203009 56 360 4.0 12.0 0.00 0.00 0.00 31 1009.0
20260504201505 54 360 1.0 12.0 0.00 0.00 0.00 37 1009.1
20260504200003 51 360 6.0 16.0 0.00 0.00 0.00 46 1009.4
20260504194503 50 360 9.0 21.0 0.00 0.00 0.00 47 1009.5
20260504193003 51 360 10.0 20.0 0.00 0.00 0.00 43 1009.5
20260504191502 53 360 10.0 20.0 0.00 0.00 0.00 43 1009.4
20260504190001 55 360 10.0 22.0 0.00 0.00 0.00 39 1009.5